Regional Weather Roundup
Issued by NWS

Home | Current Version | Previous Version | Text Only | Print | Product List | Glossary On
Versions: 1 2 3 4 5 6 7 8 9 10 11 12 13 14 15 16 17 18 19 20 21 22 23 24 25 26 27 28 29 30 31 32 33 34 35 36 37 38 39 40 41 42 43 44 45 46 47 48 49 50
000
ASUS43 KTOP 020708
RWRKS

WEATHER ROUNDUP FOR KANSAS
NATIONAL WEATHER SERVICE GOODLAND KS
200 AM CDT WED SEP 02 2015

NOTE:  "FAIR" INDICATES FEW OR NO CLOUDS BELOW 12,000 FEET WITH NO
SIGNIFICANT WEATHER AND/OR OBSTRUCTIONS TO VISIBILITY.

KSZ001>006-013>018-027>032-041>047-020800-
NORTHWEST KANSAS

CITY           SKY/WX    TMP DP  RH WIND       PRES   REMARKS
GOODLAND       PTCLDY    70  57  63 SW3       29.98F
HAYS           CLEAR     79  55  44 S13       29.94S
HILL CITY      CLEAR     81  57  43 S15G24    29.92S
RUSSELL        CLEAR     78  61  55 S16       29.92F
$$

KSZ061>065-074>080-084>089-020800-
SOUTHWEST KANSAS

CITY           SKY/WX    TMP DP  RH WIND       PRES   REMARKS
DODGE CITY     PTCLDY    74  55  51 S14       30.00R
ELKHART          N/A     71  55  56 S9          N/A
GARDEN CITY    PTCLDY    70  56  61 SE8       29.99R
GREAT BEND     PTCLDY    79  61  53 S20       29.95F
LIBERAL        PTCLDY    75  54  46 S13       30.02S
PRATT          PTCLDY    75  59  57 MISG      30.00S
$$

KSZ066>073-081>083-090>101-020800-
SOUTHEAST KANSAS

CITY           SKY/WX    TMP DP  RH WIND       PRES   REMARKS
CHANUTE        CLEAR     71  67  87 SE8       30.01F
COFFEYVILLE    CLEAR     71  67  87 S3        30.01F
HUTCHINSON     PTCLDY    78  65  63 S12       29.98S
MEDICINE LODGE   N/A     77  62  59 S6        29.99R
NEWTON         MOCLDY    75  63  64 S13       30.01F
PARSONS        CLEAR     72  68  87 SE3       30.02F
WICHITA INTL   MOCLDY    78  64  61 S15       29.98F
WICHITA JABRA  PTCLDY    75  65  70 S10       29.99F
WICHITA MCCONL MOCLDY    77  64  63 S14       29.99F
WINFIELD       CLEAR     75  65  70 S12       30.01F
$$

KSZ007>012-019>026-033>040-048>060-102>105-020800-
NORTHEAST KANSAS

CITY           SKY/WX    TMP DP  RH WIND       PRES   REMARKS
CONCORDIA      CLEAR     77  66  68 S18       29.92S
EMPORIA        CLEAR     73  67  81 S14       29.99F
LAWRENCE       CLEAR     73  66  78 SE7       29.98F
MANHATTAN      MOCLDY    79  67  66 S13       29.94S
MARYSVILLE     PTCLDY   N/A N/A N/A S8        29.93F
OLATHE IND     CLEAR     72  66  81 S9        30.01F
OLATHE EXE     CLEAR     70  65  84 S7        30.00F
SALINA         PTCLDY    80  65  59 S13       29.93F
TOPEKA BILLARD PTCLDY    76  67  73 S8        29.97F
TOPEKA FORBES  PTCLDY    76  67  73 S9        29.98F
$$



USA.gov is the U.S. government's official web portal to all federal, state and local government web resources and services.